ZHUHAI-1 02 (CAS-4B) (42759 NORAD) Tracking and Keplerian Element Data

This shows tracking and keplerian element data for the satellite.

Feedback or suggestion? Click here.




ElementValue
Catalog42759
NameZHUHAI-1 02 (CAS-4B)
Epoch Orbit21545
Epoch Day130.79720073
Epoch Year2021
RAAN28.0986
Inclination43.0196
Eccentricity0.0010355
Argument of Perigee289.17
Mean Anonmoly178.8228
Mean Motion15.10185426
Decay Rate1.65E-06
L11 42759U 17034B 21130.79720073 .00000165 00000-0 23287-4 0 9992
L22 42759 43.0196 28.0986 0010355 289.1700 178.8228 15.10185426215452

Live tracking and technical data element details for ZHUHAI-1 02 (CAS-4B) (NORAD 42759). ZHUHAI-1 02 (CAS-4B) can be tracked NOW for your location showing map with azimuth and elevation plus other details from your city location.

Track the satellite on the map from your city or location and see movement details for azimuth, elevation, latitude, longitude, range, height, and movement on the map or in text.







IsCatalogInMostPopularTable: catalog: 42759, numindb: 725
Update: records affected: 1



GetName: 42759 ZHUHAI-1 02 (CAS-4B)

Hit Count: updated at: Tue, 11 May 2021 18:49:15 GMT